Location: Clanezzo
(45.7500°N, 9.6000°E)
Time: 03:45:30
(UTC+00:00)

SL-4 R/B - Pass Details

Date: 12 May 2021
Orbit: 427 x 663 km, 51.6° (Epoch: 18 June)

Event Time Altitude Azimuth Distance (km) Brightness Sun altitude
Rises 19:08:09 0° 291° (WNW) 2,748 7.7 -4.6°
Reaches altitude 10° 19:10:41 10° 276° (W) 1,893 6.0 -5.0°
Maximum altitude 19:14:05 23° 225° (SW) 1,303 4.1 -5.5°
Drops below altitude 10° 19:17:39 10° 173° (S) 1,989 4.5 -6.0°
Enters shadow 19:19:53 - 161° (SSE) 2,737 5.1 -6.3°
